Regional Weather Roundup
Issued by NWS San Diego, CA

Home | Current Version | Previous Version | Text Only | Print | Product List | Glossary On
Versions: 1 2 3 4 5 6 7 8 9 10 11 12 13 14 15 16 17 18 19 20 21 22 23 24 25 26 27 28 29 30 31 32 33 34 35 36 37 38 39 40 41 42 43 44 45 46 47 48 49 50
292
ASUS46 KSGX 231911
RWRSGX

SAN DIEGO HOURLY WEATHER ROUNDUP
NATIONAL WEATHER SERVICE SAN DIEGO CA
1100 AM PST THU FEB 23 2017

NOTE: "FAIR" INDICATES FEW OR NO CLOUDS BELOW 12,000 FEET WITH NO
SIGNIFICANT WEATHER AND/OR OBSTRUCTIONS TO VISIBILITY.

CAZ042-043-060-061-PZZ750-775-232000-

GREATER SAN DIEGO AREA

CITY           SKY/WX    TMP DP  RH WIND       PRES   REMARKS
SAN DIEGO AP   MOSUNNY   59  33  37 NW12G17   30.10S
NATIONAL CITY    N/A     60  42  51 NW7       30.09S
CHULA VISTA      N/A     59  45  58 W3        30.01F
IMPERIAL BEACH MOSUNNY   57  38  48 W12       30.09F
BROWN FIELD    PTSUNNY   58  42  55 W8        30.08S
MIRAMAR MCAS   MOSUNNY   61  38  42 NW8       30.08S
MONTGOMERY FLD MOSUNNY   57  34  41 W8        30.09S

$$

NORTH SAN DIEGO COUNTY

CITY           SKY/WX    TMP DP  RH WIND       PRES   REMARKS
CAMP PENDLETON MOSUNNY   58  33  39 W9        30.08F
OCEANSIDE AP     N/A     58  36  43 MISG      30.08F
OCEANSIDE HBR    N/A     56  36  47 N14       30.11F
VISTA            N/A     55  36  48 W3        30.07F
CARLSBAD       SUNNY     57  32  38 W8G16     30.08S
DEL MAR          N/A     59  40  48 CALM      30.12S
LA JOLLA SCRIP   N/A     55  40  56 SW8       30.09S
FALLBROOK        N/A     56  41  56 SW3       30.05F
ESCONDIDO        N/A     58  33  39 NW6       30.09F
SAN MARCOS       N/A     58  34  41 NW7       30.09F
POWAY            N/A     56  36  46 N9        30.11F

$$

EAST SAN DIEGO COUNTY

CITY           SKY/WX    TMP DP  RH WIND       PRES   REMARKS
RAMONA         SUNNY     54  34  46 NW7       30.06F
SANTEE LAKES     N/A     58  41  53 NW3       30.08F
LA MESA          N/A     56  39  53 NW2       30.02F
JAMUL            N/A     53  40  61 CALM      30.09F
DESCANSO N       N/A     44  33  66 W3        30.02F
CAMPO            N/A     47  34  60 W15       29.99F

$$

ORANGE COUNTY AND THE LOS ANGELES BASIN

CITY           SKY/WX    TMP DP  RH WIND       PRES   REMARKS
JOHN WAYNE AP  MOSUNNY   58  25  28 W8        30.08F
LAGUNA BEACH     N/A     58  37  46 W5        30.04S
LAKE FOREST FR   N/A     55  28  35 NW2       29.99S
HUNTINGTON BCH   N/A     60  34  37 W12       30.10F
LOS ALAMITOS   SUNNY     59  29  31 NW12      30.07F
FULLERTON      SUNNY     60  27  28 VRB6      30.06F
LONG BEACH     SUNNY     61  23  23 W16       30.08F
L.A. AP        MOSUNNY   57  25  29 N12G22    30.09F
L.A. DOWNTOWN  SUNNY     59  26  28 W7        30.08S

$$

THE INLAND EMPIRE

CITY           SKY/WX    TMP DP  RH WIND       PRES   REMARKS
CORONA         SUNNY     56  28  34 SW7G17    30.07F
CHINO          MOSUNNY   56  33  42 VRB3      30.07F
ONTARIO        MOSUNNY   53  31  42 SW6       30.06F
RIVERSIDE AP   SUNNY     55  30  38 SW8       30.06S
MORENO VALLEY    N/A     53  37  53 SW3       28.18R
MARCH ARB      SUNNY     53  29  38 VRB3      30.04F
HORSETHIEF CYN   N/A     55  24  29 CALM      30.09F
PERRIS           N/A     54  39  55 W5        30.09S
HEMET EAST       N/A     49  26  41 W5        30.12S
FRENCH VALLEY  FAIR      54  28  37 SW6       30.06F
TEMECULA         N/A     55  38  52 W2        30.11F

$$

SAN BERNARDINO AND RIVERSIDE COUNTY MOUNTAINS

CITY           SKY/WX    TMP DP  RH WIND       PRES   REMARKS
BIG BEAR AP    SUNNY     32 -11  15 SW10G20   29.94S WCI  24
ANGELUS OAKS     N/A     35  20  53 CALM      30.04R
PINE COVE        N/A     32  25  77 W3        30.07R

$$

SOUTHERN DESERT INCLUDING THE COACHELLA VALLEY

CITY           SKY/WX    TMP DP  RH WIND       PRES   REMARKS
PALM SPRINGS   SUNNY     63  30  28 NW13G25   30.02S
PALM DESERT      N/A     65  31  28 CALM        N/A
THERMAL        SUNNY     64  27  24 NW6       29.99F
BLYTHE         SUNNY     60  16  18 NW14      30.00F
IMPERIAL AP      N/A     63  32  31 NW9G16    30.00
EL CENTRO NAS  MOSUNNY   64  26  23 W12       30.02F
YUMA AZ        SUNNY     62  20  19 N7        30.00
MEXICALI       SUNNY     63  30  29 NW8       30.02S

$$

UPPER DESERT

CITY           SKY/WX    TMP DP  RH WIND       PRES   REMARKS
VICTORVILLE AP SUNNY     43  18  36 NW15G28   30.05S
HESPERIA         N/A     43  22  44 N6        30.24S
PALMDALE       SUNNY     44  26  49 NW10      30.08F
LANCASTER      MOSUNNY   44  23  43 W12G20    30.09S
EDWARDS AFB    MOSUNNY   43  21  41 W30G38    30.03F
DAGGETT        SUNNY     49  15  25 W18G28    30.05S
29 PALMS N     SUNNY     50  15  24 NW21G29   30.09S
NEEDLES        SUNNY     60  19  20 N7        29.98S

$$

REGIONAL REPORTS

CITY           SKY/WX    TMP DP  RH WIND       PRES   REMARKS
SANTA BARBARA  SUNNY     57  25  29 NW15      30.12F
SANDBERG       CLOUDY    31  25  78 N16G37    30.05S WCI  20
LAS VEGAS NV   MOSUNNY   52   8  17 NW16G22   29.95S
PHOENIX AZ     MOSUNNY   58  21  24 W9        29.93F
TIJUANA        PTSUNNY   55  39  54 NW8       30.11S
ENSENADA NW      N/A     60  32  35 W8        30.07S

$$

OFFSHORE ISLANDS

CITY           SKY/WX    TMP DP  RH WIND       PRES   REMARKS
CATALINA ARPT  MOSUNNY   49  36  61 N12       30.08F
SAN CLEMENTE I MOSUNNY   56  35  45 NW21      30.14R
SAN NICOLAS IS MOSUNNY   51  34  52 NW32G41   30.13S

$$

MARINE AND OFFSHORE BUOY REPORTS

STATION/POSITION SKY/WX   TEMP    WIND        PRES    VSBY  SWELL
                          AIR SEA DIR/SP/G                  HT/PER/DIR
                          (F)     (DEG/KT/KT) (MB)    (MI)  (FT/S/D)
TANNER BANKS               54 59  330/ 23/ 31 1021.5R         8/310/14
S CLEMENTE BASIN           54 59  320/ 17/ 21 1019.7R         7/300/13
SAN NICOLAS IS.               56                N/A           5/280/11
SO. S. ROSA ISLA           52 56  320/ 23/ 29 1021.5F         5/290/14
W. S. BARBARA CH           51 55  340/ 23/ 27 1022.0F         8/270/12
M. S. BARBARA CH                  290/ 23/ 29 1021.0S
S. MONICA BASIN            53 58  310/ 16/ 19 1019.9R         5/270/13
S PEDRO CHANNEL               58                N/A           5/270/13
CMP PENDLETON NS              59                N/A           3/250/13
OCEANSIDE OFFSHR              59                N/A           3/260/11
TORREY PINES OTR              59                N/A           3/270/11
POINT LOMA SOUTH              60                N/A           5/270/13

$$





USA.gov is the U.S. government's official web portal to all federal, state and local government web resources and services.